Meath Environmental Platform

Observations for Trim Market St

Time AQI Temp °C Hum % Pres Pa CO μg/m³ H₂S μg/m³ NO μg/m³ NO₂ μg/m³ O₃ μg/m³ SO₂ μg/m³ PM1 μg/m³ PM2.5 μg/m³ PM10 μg/m³
Monday 24 August 2026
03:15 2 9.3 76 47,149 0.57 0 4.47 11.67 20.33 0 3.56 6.1 9.89
03:11 2 9.3 76 47,384 0.55 0 4.42 12.5 17.48 0 4.28 4.67 7.53
03:10 2 9.4 76 47,476 0.56 0 4.19 12.71 17.95 0 2.85 4.19 6.94
03:09 2 9.4 76 47,605 0.55 0 4.32 12.71 17.55 0 2.85 5.15 8.71
03:03 2 9.4 76 48,415 0.56 0 5.09 12.53 18.07 0 3.56 4.2 6.94
02:58 2 9.5 76 49,023 0.56 0 4.52 13.27 18.05 0 2.85 4.21 9.31
02:57 2 9.5 76 49,179 0.55 0 4.16 11.9 20.03 0 2.14 3.26 5.75
02:53 2 9.6 76 49,626 0.55 0 4.17 12.07 17.91 0 3.56 4.21 6.94
02:52 2 9.6 76 49,712 0.55 0 4.29 12.31 17.46 0 2.85 3.26 6.34
02:51 2 9.6 76 49,804 0.55 0 4.63 11.93 16.71 0 4.28 5.18 8.12
02:50 2 9.6 76 49,871 0.54 0 4.06 12.17 16.68 0 2.85 5.18 8.72
02:49 2 9.6 76 49,970 0.55 0 4.08 12.17 17.29 0 2.85 4.22 6.94
02:48 2 9.6 76 50,054 0.55 0 4.1 12.43 18.27 0 3.56 4.22 7.53
02:47 2 9.7 76 50,159 0.55 0 4.2 12.21 18.63 0 3.56 5.66 8.72
02:45 2 9.7 76 50,304 0.54 0 4.84 11.41 22.12 0 3.56 5.18 8.72
02:42 2 9.7 76 50,337 0.54 0 6.16 12.21 18.22 0 3.56 4.7 7.53
02:40 2 9.8 76 50,408 0.53 0 5.71 12.13 17.72 0 3.56 3.75 6.34
02:35 2 9.8 76 50,516 0.55 0 3.66 12.56 19.26 0 3.56 4.7 7.53
02:30 2 9.9 76 50,573 0.54 0 4.19 12.61 17.58 0 2.85 4.71 8.12
02:27 2 9.9 76 50,574 0.55 0 3.94 12.76 20 0 3.56 6.14 9.31